Precipitable_Water
0.96 0.89 0.85 0.82 0.80 0.80 0.81 0.84 0.87 0.86 0.84 0.80 0.74 0.73 0.70 0.69 0.73 0.77 0.73 0.68 0.65 0.63 0.60 0.57 0.56 0.54 0.53 0.51 0.51 0.54 0.58 0.57 0.56 0.55 0.55 0.54 0.53 0.53 0.53 0.55 0.59 0.66
0.98 0.92 0.88 0.81 0.78 0.82 0.87 0.90 0.90 0.89 0.84 0.82 0.80 0.74 0.72 0.69 0.70 0.71 0.70 0.66 0.66 0.64 0.62 0.59 0.56 0.51 0.49 0.47 0.48 0.50 0.52 0.52 0.48 0.49 0.45 0.47 0.48 0.50 0.49 0.52 0.55 0.59
1.00 0.93 0.84 0.74 0.75 0.82 0.87 0.92 0.92 0.90 0.86 0.81 0.77 0.72 0.69 0.68 0.66 0.69 0.70 0.67 0.64 0.63 0.61 0.59 0.55 0.51 0.50 0.49 0.47 0.47 0.47 0.46 0.43 0.43 0.41 0.40 0.42 0.43 0.48 0.55 0.57 0.58
0.99 0.90 0.80 0.78 0.79 0.82 0.88 0.90 0.92 0.92 0.87 0.81 0.78 0.76 0.74 0.72 0.68 0.67 0.69 0.70 0.66 0.63 0.63 0.62 0.58 0.56 0.56 0.54 0.50 0.48 0.48 0.46 0.45 0.42 0.38 0.40 0.42 0.45 0.49 0.54 0.57 0.57
0.99 0.94 0.89 0.84 0.83 0.86 0.90 0.90 0.90 0.88 0.84 0.84 0.83 0.82 0.79 0.73 0.70 0.68 0.69 0.70 0.69 0.67 0.66 0.63 0.62 0.61 0.60 0.59 0.57 0.55 0.56 0.56 0.56 0.52 0.49 0.46 0.45 0.45 0.49 0.51 0.52 0.52
1.04 1.00 0.96 0.87 0.87 0.90 0.92 0.92 0.90 0.88 0.87 0.86 0.84 0.84 0.79 0.75 0.73 0.73 0.72 0.71 0.70 0.68 0.66 0.65 0.65 0.66 0.67 0.66 0.65 0.63 0.62 0.62 0.62 0.60 0.59 0.58 0.57 0.54 0.50 0.50 0.50 0.50
1.07 1.05 0.98 0.94 0.92 0.95 0.96 0.94 0.91 0.91 0.90 0.89 0.87 0.85 0.81 0.80 0.78 0.77 0.77 0.76 0.75 0.73 0.71 0.70 0.70 0.71 0.73 0.71 0.69 0.67 0.67 0.67 0.67 0.65 0.61 0.60 0.60 0.60 0.60 0.57 0.55 0.55
1.11 1.06 1.01 0.97 0.95 0.98 0.95 0.94 0.91 0.92 0.93 0.92 0.86 0.85 0.86 0.87 0.83 0.81 0.82 0.81 0.79 0.77 0.76 0.74 0.74 0.73 0.74 0.73 0.71 0.71 0.71 0.72 0.71 0.70 0.69 0.67 0.66 0.62 0.61 0.61 0.60 0.60
1.15 1.07 1.05 1.03 0.97 0.93 0.92 0.95 0.91 0.92 0.94 0.90 0.87 0.84 0.89 0.91 0.86 0.85 0.86 0.83 0.79 0.79 0.79 0.79 0.79 0.79 0.79 0.79 0.79 0.79 0.78 0.78 0.77 0.76 0.74 0.73 0.71 0.70 0.69 0.67 0.64 0.64
1.16 1.12 1.09 1.07 0.99 0.95 0.93 0.94 0.93 0.95 0.95 0.91 0.89 0.84 0.88 0.91 0.90 0.89 0.86 0.82 0.79 0.81 0.83 0.84 0.85 0.84 0.81 0.82 0.84 0.85 0.85 0.84 0.85 0.85 0.84 0.82 0.81 0.78 0.75 0.74 0.72 0.70
1.17 1.15 1.14 1.10 1.03 0.99 1.00 1.00 0.99 0.98 0.97 0.93 0.90 0.84 0.86 0.88 0.88 0.89 0.84 0.80 0.79 0.82 0.84 0.86 0.87 0.86 0.83 0.84 0.85 0.88 0.89 0.89 0.89 0.89 0.89 0.88 0.88 0.87 0.87 0.85 0.82 0.78
1.15 1.16 1.10 1.05 0.98 0.96 0.99 1.00 0.97 0.97 0.97 0.97 0.93 0.84 0.84 0.85 0.84 0.85 0.84 0.82 0.84 0.85 0.86 0.86 0.87 0.87 0.87 0.89 0.90 0.91 0.94 0.96 0.96 0.94 0.93 0.93 0.95 0.96 0.98 0.98 0.95 0.93
1.13 1.13 1.07 1.03 0.98 0.88 0.89 0.91 0.85 0.94 1.01 0.98 0.94 0.87 0.81 0.81 0.83 0.83 0.84 0.83 0.84 0.87 0.88 0.88 0.90 0.94 0.98 1.01 1.01 0.99 1.00 1.00 0.99 0.98 0.96 0.98 1.00 1.01 1.03 1.04 1.04 1.02
1.10 1.08 1.08 1.01 0.95 0.88 0.85 0.84 0.87 0.94 0.94 0.91 0.87 0.80 0.79 0.81 0.81 0.82 0.84 0.85 0.85 0.86 0.89 0.92 0.96 0.99 1.04 1.09 1.08 1.06 1.04 1.02 1.00 0.97 0.96 0.99 1.01 1.03 1.03 1.03 1.04 1.03
1.05 1.05 1.05 1.01 0.98 0.96 0.96 0.94 0.94 0.94 0.89 0.85 0.82 0.78 0.79 0.82 0.83 0.82 0.81 0.82 0.85 0.86 0.88 0.92 0.95 0.98 1.02 1.06 1.06 1.05 1.05 1.02 1.00 0.98 0.97 0.96 0.96 0.98 0.99 1.00 1.01 1.01
1.04 1.01 0.99 0.99 0.98 0.99 1.02 1.02 0.98 0.93 0.87 0.83 0.81 0.82 0.80 0.82 0.83 0.84 0.82 0.81 0.81 0.84 0.88 0.91 0.94 0.97 1.01 1.04 1.03 1.04 1.05 1.04 1.03 1.00 0.98 0.95 0.92 0.92 0.94 0.96 0.98 0.99
1.01 1.00 1.02 1.00 1.01 1.01 1.01 1.02 1.00 0.98 0.96 0.93 0.90 0.91 0.88 0.85 0.86 0.87 0.88 0.88 0.86 0.87 0.88 0.92 0.95 0.98 1.00 1.00 0.99 1.00 1.01 1.01 1.00 0.99 0.97 0.94 0.91 0.89 0.89 0.93 0.96 0.99
0.99 0.99 0.99 1.00 1.00 0.97 0.99 1.04 1.04 1.02 1.01 1.00 0.98 0.95 0.95 0.96 0.95 0.95 0.95 0.95 0.93 0.94 0.95 0.95 0.95 0.97 0.98 0.98 0.97 0.97 0.98 0.98 0.98 0.96 0.94 0.91 0.90 0.89 0.89 0.91 0.93 0.96
1.03 1.02 1.03 1.05 1.04 1.04 1.04 1.07 1.07 1.06 1.04 1.03 1.01 1.02 1.01 0.99 1.00 1.00 0.99 0.98 0.97 0.96 0.97 0.99 0.98 0.98 0.97 0.97 0.95 0.94 0.95 0.97 0.97 0.95 0.92 0.90 0.88 0.87 0.88 0.91 0.95 0.98
1.04 1.05 1.05 1.05 1.05 1.04 1.05 1.04 1.05 1.04 1.05 1.05 1.04 1.06 1.04 1.03 1.03 1.00 1.00 0.99 0.98 0.96 0.96 0.97 0.96 0.96 0.95 0.94 0.93 0.93 0.93 0.94 0.93 0.90 0.89 0.87 0.87 0.87 0.91 0.96 0.98 0.96
1.01 1.03 1.03 1.03 1.03 1.02 1.02 1.02 1.01 1.02 1.03 1.04 1.05 1.03 1.01 0.99 0.99 0.97 0.97 0.98 0.97 0.97 0.95 0.94 0.94 0.93 0.91 0.90 0.89 0.89 0.89 0.89 0.89 0.89 0.89 0.88 0.89 0.89 0.92 0.97 0.97 0.95
1.02 1.02 1.02 1.03 1.03 1.01 1.00 0.99 0.98 0.98 0.98 0.98 0.98 0.98 1.00 1.00 1.00 0.98 0.96 0.96 0.96 0.95 0.92 0.89 0.90 0.90 0.89 0.88 0.87 0.86 0.86 0.87 0.86 0.86 0.84 0.83 0.85 0.87 0.91 0.94 0.94 0.91
1.00 1.02 1.00 1.01 1.00 0.98 0.98 0.97 0.95 0.96 0.97 0.98 0.94 0.93 0.92 0.93 0.94 0.96 0.97 0.92 0.92 0.92 0.89 0.87 0.87 0.86 0.86 0.84 0.83 0.83 0.83 0.80 0.81 0.80 0.79 0.79 0.81 0.84 0.86 0.87 0.88 0.88
0.78 0.81 0.83 0.87 0.91 0.91 0.88 0.87 0.89 0.90 0.92 0.94 0.89 0.88 0.89 0.90 0.92 0.91 0.91 0.91 0.88 0.86 0.85 0.82 0.81 0.82 0.82 0.81 0.81 0.80 0.77 0.76 0.76 0.75 0.74 0.76 0.77 0.79 0.80 0.81 0.82 0.83
0.73 0.73 0.73 0.73 0.72 0.73 0.77 0.81 0.85 0.86 0.90 0.91 0.89 0.88 0.86 0.87 0.86 0.84 0.84 0.84 0.83 0.83 0.83 0.79 0.78 0.78 0.77 0.74 0.74 0.72 0.72 0.73 0.72 0.69 0.67 0.68 0.69 0.69 0.71 0.72 0.73 0.74
0.73 0.72 0.72 0.71 0.71 0.71 0.72 0.72 0.73 0.76 0.82 0.85 0.86 0.85 0.83 0.84 0.82 0.80 0.77 0.77 0.78 0.78 0.77 0.77 0.75 0.73 0.71 0.68 0.66 0.64 0.64 0.65 0.65 0.61 0.58 0.60 0.62 0.63 0.63 0.65 0.66 0.67
Wind_Speed
15 15 14 14 14 14 14 13 12 11 10 9 8 7 7 7 8 8 7 7 7 7 7 6 6 5 5 5 5 6 6 6 5 5 5 5 5 4 4 3 3 3
16 15 14 14 15 15 14 14 13 12 10 9 8 8 8 8 8 8 7 7 7 8 7 6 6 6 6 5 5 5 6 5 5 5 5 5 5 5 4 4 3 3
16 16 15 15 15 15 15 14 13 13 11 10 9 8 8 8 8 8 8 8 8 8 8 7 7 6 6 6 5 5 5 5 4 4 4 4 5 5 4 4 4 3
17 16 15 15 15 15 15 14 13 13 12 11 10 10 9 9 8 8 8 8 8 8 8 8 7 7 7 6 6 5 5 5 4 4 4 4 4 4 4 4 4 3
17 17 16 15 15 15 15 14 13 13 12 11 10 10 10 10 9 8 8 8 8 8 8 8 8 7 7 6 6 6 5 5 4 4 3 3 3 3 4 4 4 4
17 17 16 16 15 15 15 14 14 13 12 11 10 10 10 10 10 9 9 9 9 9 8 8 8 7 7 6 6 5 5 5 4 4 3 3 3 3 3 4 4 4
17 17 16 16 16 15 15 14 13 13 12 11 10 10 10 10 10 10 10 10 10 9 9 8 8 8 7 7 6 6 5 5 5 4 4 4 4 4 4 4 4 5
17 17 17 16 16 16 15 14 14 13 12 11 11 10 11 10 10 11 11 10 11 10 10 9 9 9 8 8 7 7 7 6 6 6 5 5 5 5 5 5 5 6
17 17 17 17 16 16 15 15 15 14 13 12 11 11 11 11 11 11 11 11 11 11 11 10 10 10 9 9 8 8 8 8 7 7 7 7 7 7 7 7 7 7
17 17 17 17 16 16 16 15 15 15 14 13 13 13 13 12 12 12 12 11 11 11 11 11 10 10 10 9 9 9 9 9 8 8 8 8 8 8 8 8 8 8
17 18 18 17 17 17 16 16 15 15 15 14 14 14 14 13 13 12 12 12 11 11 11 11 11 11 10 10 10 10 10 10 9 9 9 9 10 10 10 10 10 10
18 18 18 18 19 18 17 16 16 16 16 15 15 15 14 14 14 14 13 12 12 12 11 11 11 11 11 11 11 11 11 11 10 10 10 10 10 11 11 11 11 11
16 17 17 17 18 18 17 17 17 17 16 16 15 15 15 15 14 14 14 13 13 13 12 12 11 11 11 12 12 12 12 12 11 11 11 11 11 12 12 12 12 12
14 15 15 15 15 16 16 16 17 17 17 16 16 16 16 16 15 15 14 14 14 14 13 13 13 13 13 13 13 13 13 13 13 12 12 12 13 13 13 13 13 13
14 14 14 14 14 15 15 15 15 15 15 15 16 16 16 16 16 15 15 14 14 14 14 14 14 14 14 14 14 14 14 14 14 14 14 14 14 15 15 15 14 14
14 14 14 14 14 14 14 14 14 14 14 15 15 16 16 16 16 16 15 15 15 15 15 15 15 15 15 15 15 15 15 15 15 15 15 16 16 16 16 16 16 16
14 14 14 15 14 14 14 14 15 15 15 15 15 16 16 16 16 16 15 15 15 15 15 15 15 15 16 16 16 16 16 16 16 16 16 16 17 17 17 17 16 16
14 14 14 15 15 15 14 14 15 15 15 15 15 15 15 15 15 15 15 15 16 16 16 16 16 16 17 17 17 17 17 17 17 17 17 17 17 17 17 16 16 15
14 14 15 16 16 15 15 15 15 15 15 16 16 16 16 16 15 16 16 16 17 17 17 17 17 17 17 17 18 18 18 18 18 18 18 18 17 17 16 16 16 15
13 14 15 16 16 16 16 17 16 16 16 16 17 17 17 17 17 17 17 18 18 18 18 18 18 19 19 19 19 19 19 19 20 19 18 18 17 17 16 16 16 16
13 13 14 15 16 16 17 18 18 18 18 17 17 18 18 18 18 19 19 19 19 19 19 19 19 19 19 19 19 19 19 19 19 19 18 18 17 17 17 17 16 16
13 13 14 14 15 16 17 17 18 18 18 18 19 19 19 19 19 20 20 21 21 21 21 20 20 20 20 21 21 20 20 20 19 19 19 19 19 18 18 18 18 18
12 13 14 14 15 16 16 17 17 17 18 18 19 19 19 20 20 21 21 22 22 22 22 22 22 22 22 22 22 21 21 20 20 20 19 19 19 20 20 20 20 20
12 12 13 14 15 16 17 17 17 17 18 18 19 19 20 21 21 22 22 23 23 24 23 23 23 23 23 22 22 22 22 21 21 21 20 20 20 20 21 21 21 21
12 13 13 14 15 16 16 17 17 18 19 20 20 21 21 22 23 23 23 23 23 24 24 24 24 24 23 23 23 24 24 23 23 23 23 22 22 22 21 22 22 22
13 13 14 14 15 15 16 17 18 19 20 21 22 22 23 24 24 24 24 24 24 25 25 25 25 24 25 25 25 25 26 26 26 26 25 24 24 24 24 24 25 25
Wind_Direction
204 206 210 212 213 213 213 213 215 219 223 227 230 231 230 228 223 220 220 218 216 214 208 201 198 196 192 188 188 190 191 191 190 193 194 192 189 187 186 188 188 188
207 209 213 214 215 215 215 217 218 220 223 227 230 229 227 228 225 222 219 217 215 212 207 202 199 198 195 191 188 186 189 190 190 195 195 193 194 193 188 184 181 183
210 213 214 215 215 215 217 219 219 221 225 228 229 228 226 225 224 221 218 216 216 212 207 203 199 197 195 194 192 189 188 185 184 188 187 188 194 193 190 191 191 191
212 214 215 214 215 216 218 218 219 222 226 229 229 229 227 224 223 220 217 216 216 214 211 207 202 199 196 194 190 188 185 180 179 178 174 182 191 192 193 197 201 204
212 214 216 215 215 217 217 218 220 223 226 228 230 229 226 224 222 220 217 216 215 214 212 209 205 201 198 196 192 188 185 181 181 180 177 185 195 198 202 204 206 212
212 215 216 216 216 215 216 218 221 222 224 227 228 227 225 222 220 219 217 215 211 209 208 206 205 204 203 202 198 194 192 190 193 195 199 208 213 214 214 211 211 216
212 216 217 216 215 214 215 217 218 219 223 225 226 226 222 218 217 216 215 213 210 208 208 208 208 210 211 211 207 205 207 209 214 217 219 224 227 226 227 226 223 224
214 216 216 215 213 213 215 215 216 218 223 225 226 225 222 218 216 215 215 215 213 211 211 211 212 215 217 219 218 219 222 225 228 230 231 234 236 236 237 238 237 237
215 215 213 212 213 215 215 214 216 221 225 226 227 226 223 220 218 218 219 219 215 214 215 216 219 222 223 225 229 232 233 232 234 237 239 240 242 244 245 245 245 245
213 211 210 210 211 214 214 215 219 224 227 228 228 227 224 221 219 220 221 219 218 219 221 221 224 227 227 228 232 235 234 233 236 240 243 244 244 245 247 247 247 248
216 214 214 214 215 216 218 221 222 223 228 230 229 226 222 221 222 221 220 219 220 223 223 223 224 227 229 232 234 235 234 236 239 243 245 245 246 247 248 249 251 252
220 220 220 220 220 220 222 223 222 225 232 234 229 224 221 220 222 221 221 221 223 223 222 223 227 231 234 236 236 234 235 239 242 245 247 248 247 248 250 253 256 256
216 218 219 219 220 221 223 225 228 231 233 229 225 223 222 222 223 223 224 225 226 225 225 228 233 237 240 239 237 235 237 240 243 247 250 252 251 252 254 256 258 258
213 214 216 219 221 224 225 228 231 229 225 224 224 224 224 225 227 228 229 230 229 229 230 234 238 241 241 240 238 238 240 243 246 249 253 255 256 256 256 257 257 257
215 214 215 218 223 227 227 227 224 219 218 222 224 223 224 227 228 229 231 232 233 234 235 238 240 242 243 242 241 242 244 247 250 253 256 257 258 258 258 258 257 257
220 219 218 219 222 224 224 222 219 217 219 222 223 223 224 226 227 229 231 234 235 236 237 239 242 244 244 244 245 246 248 250 254 257 258 259 260 260 260 259 257 257
222 223 222 222 223 223 223 222 221 222 223 222 222 223 223 225 228 230 232 235 236 237 239 242 244 245 245 247 249 250 252 253 255 257 258 259 261 260 259 257 256 255
223 223 223 222 222 223 224 222 222 222 222 221 221 222 224 228 230 232 234 236 238 240 242 244 246 247 248 250 252 253 255 256 256 258 259 261 261 259 256 255 254 252
225 224 224 223 223 223 223 222 222 222 222 222 223 226 230 232 235 237 238 239 241 243 245 247 248 250 252 255 257 258 259 260 259 260 260 260 260 258 255 253 252 250
226 226 224 223 224 224 224 225 225 225 226 227 228 230 233 236 239 242 243 244 246 247 249 251 252 253 255 257 259 260 261 261 261 260 259 259 258 257 255 253 251 249
228 227 226 226 227 228 228 229 230 231 232 233 234 236 239 242 244 245 246 248 249 250 251 253 254 255 257 259 260 261 262 262 260 258 257 258 257 255 254 252 250 249
232 231 232 233 233 234 235 235 236 237 237 239 241 243 245 248 250 250 251 251 252 252 253 255 257 258 259 261 262 263 262 260 257 255 255 257 257 255 253 252 251 251
236 236 237 237 237 238 241 242 243 243 244 244 245 247 249 252 254 255 256 255 254 254 254 256 258 260 261 262 261 260 259 258 257 256 256 257 257 255 254 253 253 253
241 241 243 244 244 246 246 246 246 246 248 249 250 251 253 255 257 257 258 257 256 256 255 257 259 259 259 259 258 258 258 259 259 259 258 259 259 258 257 255 255 255
248 249 251 251 251 251 250 250 250 250 252 255 256 256 257 259 259 259 258 257 257 256 256 257 259 258 257 257 258 258 259 260 260 260 260 260 260 260 259 258 258 258
250 252 253 253 253 254 255 256 257 257 259 259 259 259 261 261 261 260 259 258 258 259 259 258 258 258 257 257 258 259 260 261 261 260 259 259 259 259 259 259 260 261